TJS-15 AKM, 63299

Orbit data source: Space-Track

TJS-15 AKM, 63299 is space debris in GEO originally from a launch on Sun, 09 Mar 2025 UTC via a CHANG ZHENG 3B launch vehicle from the Xichang Space Center, China (XSC). Debris objects in space refer to the collection of defunct objects orbiting the Earth. Examples of debris include non-operational satellites, rocket bodies, and fragments generated from explosions, collisions, or faulty payload assembly.

Loading next visibility...
Identifier
63299, 2025-045C
Orbit
GEO
Country
Flag of CNCN / PRC
Related business
Manufacturer
CAST
Mission
Defense Technology
Bus & Motor
Unknown
Mass
~500 kg wet, ~500 kg dry
Launch date (UTC)
2025-03-09 (6 months ago)
Launch vehicle
CHANG ZHENG 3B
Launch site
Xichang Space Center, China (XSC)
Object type
Payload
Rocket body
Debris
Shape & HBR
Box, 0.5 m
Radar Cross Section
1.500 m², Large (>1 m²)

Expand to show TLE details & history
Last TLE update: 1 month ago

TLE from 1 month ago
0 TJS-15 AKM
1 63299U 25045C   25232.03765232 -.00000107  00000-0  00000+0 0  9995
2 63299   0.4289  90.5802 0019464  60.3161 209.1968  0.98875323  1639
Epoch: 2025-08-20T00:54Z
TLE epoch observation values (Epoch: 2025-08-20T00:54:13.16Z)
Latitude
-0.45203°
Longitude
17.82388°
Altitude
36,254.837 km
Speed
3.055 km/s
True Right ascension
23h 59m 59s
True Declination
0° 27' 06"
Sunlit
Object was in daylight at epoch
Visualization orbit readout
Latitude
Unknown
Longitude
Unknown
Altitude
Unknown
Speed
Unknown
Apparent Right ascension
Unknown
Apparent Declination
Unknown
Sunlit
N/A
Visualization observer readout
Local Sidereal Time
02:15:45
Azimuth
Unknown
Elevation
Unknown
Doppler factor
Unknown
Orbital elements
Apogee altitude
36,266.578 km
Perigee altitude
36,100.893 km
Semi-major axis
42,561.872 km
Eccentricity
0.00195
Inclination
0.4289°
RAAN
90.5802°
Arg. of periapsis
60.3161°
True anomaly
209.08823°
Mean anomaly
209.1968°
Eccentric anomaly
209.14249°
Mean motion
0.24718 °/min
Orbital period
1,456.43 mins
BSTAR
0
Loading maneuver chart data...
Computing Atmospheric mass density...
Loading historical data...
Loading historical data...
Loading historical data...
Loading historical data...
Loading historical data...
Loading historical data...
Loading historical data...
Other satellites on launch #45 in the year 2025 (2025-03-09 UTC)

Documentation

Showing up to 5 results
|